Hourly Data Report for October 02, 2014

All times are specified in Local Standard Time (LST). Add 1 hour to adjust for Daylight Saving Time where and when it is observed.

RANKIN INLET A
NUNAVUT

62°48'38.000" N
92°06'53.000" W
32.30 m
2303405
71083
YRT

Download Data

Hourly Data (October 2014)
Hourly Data Report for October 2, 2014
Temp Definition
°C
Dew Point Temp Definition
°C
Rel Hum Definition
%
Wind Dir Definition
10's deg

Wind Spd Definition
km/h
Visibility Definition
km
Stn Press Definition
kPa
Hmdx Definition


Wind Chill Definition


Weather Definition


TIME
00:00 Legend Double Dagger 0.3 -0.3 96 7 40 2.4 100.31     Snow
01:00 Legend Double Dagger 0.1 -0.5 96 7 41 2.8 100.19     Snow
02:00 Legend Double Dagger 0.0 -1.1 92 7 45 4.8 100.13   -8 Snow
03:00 Legend Double Dagger -0.4 -1.4 93 7 41 4.8 100.09   -8 Snow
04:00 Legend Double Dagger -0.5 -1.5 93 7 43 3.2 100.02   -8 Snow
05:00 Legend Double Dagger -0.4 -1.5 92 6 50 3.2 99.96   -9 Snow
06:00 Legend Double Dagger -0.4 -1.3 94 6 41 2.4 99.86   -8 Snow
07:00 Legend Double Dagger -0.6 -1.6 93 6 53 1.2 99.78   -9 Snow
08:00 Legend Double Dagger -0.7 -1.7 93 6 50 0.8 99.74   -9 Snow,Blowing Snow
09:00 Legend Double Dagger -0.7 -1.8 92 6 55 0.8 99.71   -9 Snow,Blowing Snow
10:00 Legend Double Dagger -0.9 -1.9 93 5 47 0.4 99.67   -9 Snow,Blowing Snow
11:00 Legend Double Dagger -1.0 -2.1 92 5 50 0.4 99.64   -10 Snow,Blowing Snow
12:00 Legend Double Dagger -1.0 -2.1 92 6 49 0.4 99.61   -9 Snow,Blowing Snow
13:00 Legend Double Dagger -0.9 -2.2 91 6 48 0.4 99.57   -9 Snow,Blowing Snow
14:00 Legend Double Dagger -1.2 -2.3 92 5 45 0.4 99.58   -9 Snow,Blowing Snow
15:00 Legend Double Dagger -1.3 -2.6 91 5 46 0.4 99.59   -10 Snow,Blowing Snow
16:00 Legend Double Dagger -1.4 -2.8 90 5 47 0.8 99.62   -10 Snow,Blowing Snow
17:00 Legend Double Dagger -1.7 -3.1 90 4 53 0.8 99.64   -11 Snow,Blowing Snow
18:00 Legend Double Dagger -2.0 -3.6 89 3 57 0.8 99.68   -11 Snow,Blowing Snow
19:00 Legend Double Dagger -2.3 -3.9 89 3 53 0.8 99.70   -11 Snow,Blowing Snow
20:00 Legend Double Dagger -2.5 -4.2 88 3 51 0.8 99.73   -12 Snow,Blowing Snow
21:00 Legend Double Dagger -2.7 -4.4 88 3 49 0.8 99.75   -12 Snow,Blowing Snow
22:00 Legend Double Dagger -3.0 -4.6 89 2 54 0.8 99.76   -13 Snow,Blowing Snow
23:00 Legend Double Dagger -3.0 -4.7 88 3 52 0.8 99.79   -12 Snow,Blowing Snow

Notes on Data Quality.

Legend

  • E = Estimated
  • M = Missing
  • NA = Not Available
  • ‡ = Partner data that is not subject to review by the National Climate Archives
Date modified: